COSMOS 2251 DEB, 37278

Orbit data source: Space-Track

COSMOS 2251 DEB, 37278 is space debris in LEO originally from a launch on Wed, 16 Jun 1993 UTC launched from the Plesetsk Missile And Space Complex (PKMTR). The debris from Iridium 33, an American commercial communications satellite, has been tracked extensively since its accidental collision with the defunct Russian satellite Cosmos 2251 in 2009. This event, occurring at high speed in low Earth orbit (LEO), generated thousands of pieces of space debris, significantly increasing the risk of further collisions. The Iridium 33 debris cloud has impacted space traffic management and orbital debris mitigation strategies, making it a subject of ongoing study in space situational awareness.

Loading next visibility...
Identifier
37278, 1993-036BHS
Orbit
LEO
Country
Flag of CISCIS
Related business
Manufacturer
Unknown
Mission
Spacecraft
Bus & Motor
Unknown
Mass
Unknown
Launch date (UTC)
1993-06-16 (33 years ago)
Launch vehicle
Unknown
Launch site
Plesetsk Missile And Space Complex (PKMTR)
Object type
Payload
Rocket body
Debris
Shape & HBR
Unknown shape, 0.1 m
Radar Cross Section
Small (<0.1 m²)

Expand to show TLE details & history
Last TLE update: 1 day ago

TLE from 1 day ago
0 COSMOS 2251 DEB
1 37278U 93036BHS 26032.98504767  .00001924  00000-0  64860-3 0  9990
2 37278  73.7832 256.7990 0298881  69.7940 357.7197 14.15383728645543
Epoch: 2026-02-01T23:38Z
TLE epoch observation values (Epoch: 2026-02-01T23:38:28.118Z)
Latitude
62.51741°
Longitude
163.77952°
Altitude
635.738 km
Speed
7.659 km/s
True Right ascension
19h 22m 20s
True Declination
62° 22' 26"
Sunlit
Object was in daylight at epoch
Visualization orbit readout
Latitude
Unknown
Longitude
Unknown
Altitude
Unknown
Speed
Unknown
Apparent Right ascension
Unknown
Apparent Declination
Unknown
Sunlit
N/A
Visualization observer readout
Local Sidereal Time
05:45:47
Azimuth
Unknown
Elevation
Unknown
Doppler factor
Unknown
Orbital elements
Apogee altitude
1,054.369 km
Perigee altitude
622.976 km
Semi-major axis
7,216.809 km
Eccentricity
0.02989
Inclination
73.7832°
RAAN
256.799°
Arg. of periapsis
69.794°
True anomaly
357.57815°
Mean anomaly
357.7197°
Eccentric anomaly
357.64947°
Mean motion
3.54018 °/min
Orbital period
101.69 mins
BSTAR
0.0006486
Loading maneuver chart data...
Computing Atmospheric mass density...

Documentation

Showing up to 5 results
|